CXA1012 ZBAA-ZHCC

Flight info

Callsign CXA1012
Flight time 1h 11m
Altitude 30100
Route RUSDO6J RUSDO W45 VAGBI B215 EKETA B208 NOPIN NOP6U
Aircraft A35K/H-SDE2E3GHIJ3J4J5LM1ORWXY/LB1D1

Departure

Time 2026-04-20 15:16
Airport Beijing Capital International Airport (ZBAA)

Arrival

Time 2026-04-20 16:28
Airport Zhengzhou Xinzheng International Airport (ZHCC)
Time Latitude Longitude Altitude Speed Heading
2026-04-20 14:32 40.07889 116.59018 130 ft 0 kts 270°
2026-04-20 14:58 40.07889 116.59028 125 ft 3 kts 268°
2026-04-20 14:58 40.07890 116.59054 128 ft 3 kts 261°
2026-04-20 14:58 40.07894 116.59079 125 ft 3 kts 251°
2026-04-20 14:58 40.07901 116.59102 125 ft 3 kts 236°
2026-04-20 14:59 40.07911 116.59119 125 ft 3 kts 213°
2026-04-20 14:59 40.07922 116.59128 130 ft 3 kts 184°
2026-04-20 14:59 40.07928 116.59129 131 ft 0 kts 173°
2026-04-20 15:04 40.07901 116.59132 127 ft 12 kts 175°
2026-04-20 15:04 40.07786 116.59168 124 ft 12 kts 134°
2026-04-20 15:04 40.07783 116.59226 127 ft 8 kts 60°
2026-04-20 15:05 40.07835 116.59245 128 ft 12 kts
2026-04-20 15:05 40.07928 116.59234 126 ft 15 kts 354°
2026-04-20 15:05 40.08040 116.59217 128 ft 18 kts 352°
2026-04-20 15:05 40.08194 116.59192 126 ft 27 kts 353°
2026-04-20 15:06 40.08383 116.59164 128 ft 28 kts 353°
2026-04-20 15:06 40.08584 116.59131 127 ft 30 kts 353°
2026-04-20 15:06 40.08730 116.59108 128 ft 0 kts 353°
2026-04-20 15:06 40.08769 116.59102 127 ft 10 kts 354°
2026-04-20 15:07 40.08838 116.59092 128 ft 6 kts 353°
2026-04-20 15:07 40.08846 116.59091 127 ft 8 kts 353°
2026-04-20 15:07 40.08914 116.59078 128 ft 9 kts 352°
2026-04-20 15:07 40.08951 116.59078 127 ft 0 kts
2026-04-20 15:08 40.08957 116.59080 125 ft 7 kts 11°
2026-04-20 15:08 40.08992 116.59117 127 ft 0 kts 71°
2026-04-20 15:09 40.08992 116.59118 127 ft 0 kts 71°
2026-04-20 15:10 40.08994 116.59128 123 ft 5 kts 75°
2026-04-20 15:11 40.08993 116.59185 127 ft 7 kts 105°
2026-04-20 15:11 40.08991 116.59195 127 ft 0 kts 102°
2026-04-20 15:11 40.08986 116.59227 126 ft 10 kts 99°
2026-04-20 15:12 40.08980 116.59325 130 ft 11 kts 106°
2026-04-20 15:12 40.08951 116.59400 126 ft 0 kts 126°
2026-04-20 15:13 40.08950 116.59401 126 ft 1 kts 126°
2026-04-20 15:13 40.08911 116.59463 126 ft 15 kts 139°
2026-04-20 15:14 40.08814 116.59503 127 ft 15 kts 173°
2026-04-20 15:14 40.08774 116.59509 127 ft 0 kts 173°
2026-04-20 15:15 40.08770 116.59510 128 ft 6 kts 173°
2026-04-20 15:15 40.08487 116.59554 128 ft 78 kts 173°
2026-04-20 15:16 40.07709 116.59676 125 ft 144 kts 173°
2026-04-20 15:16 40.06570 116.59861 432 ft 172 kts 172°
2026-04-20 15:16 40.05431 116.60066 1331 ft 162 kts 176°
2026-04-20 15:16 40.04273 116.60232 1803 ft 176 kts 178°
2026-04-20 15:17 40.02983 116.60413 2183 ft 197 kts 178°
2026-04-20 15:17 40.01534 116.60638 2530 ft 222 kts 176°
2026-04-20 15:17 39.99925 116.60895 2915 ft 244 kts 176°
2026-04-20 15:17 39.98180 116.61162 3465 ft 258 kts 176°
2026-04-20 15:18 39.96377 116.61440 4168 ft 265 kts 176°
2026-04-20 15:18 39.94513 116.61738 4866 ft 273 kts 176°
2026-04-20 15:18 39.92613 116.62031 5573 ft 278 kts 176°
2026-04-20 15:18 39.90674 116.62334 6298 ft 282 kts 176°
2026-04-20 15:19 39.88710 116.62638 7007 ft 286 kts 176°
2026-04-20 15:19 39.86720 116.62941 7618 ft 289 kts 176°
2026-04-20 15:19 39.84702 116.63256 8236 ft 295 kts 175°
2026-04-20 15:19 39.82675 116.63584 8967 ft 299 kts 175°
2026-04-20 15:20 39.80592 116.63911 9701 ft 304 kts 176°
2026-04-20 15:20 39.78469 116.64230 10294 ft 313 kts 176°
2026-04-20 15:20 39.76243 116.64560 10640 ft 329 kts 176°
2026-04-20 15:20 39.73908 116.64912 10967 ft 345 kts 175°
2026-04-20 15:21 39.71469 116.65274 11292 ft 359 kts 176°
2026-04-20 15:21 39.68940 116.65244 11631 ft 367 kts 192°
2026-04-20 15:21 39.66545 116.64170 12166 ft 366 kts 212°
2026-04-20 15:21 39.64578 116.62126 12786 ft 362 kts 232°
2026-04-20 15:22 39.63265 116.59382 13409 ft 358 kts 250°
2026-04-20 15:22 39.62726 116.56248 14012 ft 357 kts 268°
2026-04-20 15:22 39.63006 116.53054 14562 ft 358 kts 287°
2026-04-20 15:22 39.63897 116.50035 15176 ft 359 kts 291°
2026-04-20 15:23 39.64483 116.46933 15769 ft 360 kts 276°
2026-04-20 15:23 39.64443 116.43680 16386 ft 362 kts 268°
2026-04-20 15:23 39.64232 116.40422 17002 ft 363 kts 267°
2026-04-20 15:23 39.64009 116.37152 17625 ft 364 kts 267°
2026-04-20 15:24 39.63788 116.33868 18188 ft 366 kts 268°
2026-04-20 15:24 39.63568 116.30581 18716 ft 367 kts 268°
2026-04-20 15:24 39.63348 116.27265 19239 ft 367 kts 268°
2026-04-20 15:24 39.63128 116.23952 19624 ft 368 kts 268°
2026-04-20 15:25 39.62907 116.20646 19738 ft 368 kts 268°
2026-04-20 15:25 39.62686 116.17338 19747 ft 368 kts 268°
2026-04-20 15:25 39.62467 116.14027 19963 ft 371 kts 268°
2026-04-20 15:25 39.62241 116.10679 20522 ft 370 kts 268°
2026-04-20 15:26 39.62015 116.07366 21098 ft 368 kts 268°
2026-04-20 15:26 39.61789 116.04055 21617 ft 368 kts 268°
2026-04-20 15:26 39.61565 116.00758 22126 ft 368 kts 269°
2026-04-20 15:26 39.61338 115.97440 22620 ft 368 kts 269°
2026-04-20 15:27 39.61113 115.94170 23078 ft 369 kts 269°
2026-04-20 15:27 39.60884 115.90845 23529 ft 370 kts 269°
2026-04-20 15:27 39.60673 115.87524 23908 ft 370 kts 271°
2026-04-20 15:27 39.60745 115.84211 24269 ft 366 kts 280°
2026-04-20 15:28 39.61311 115.81010 24674 ft 363 kts 289°
2026-04-20 15:28 39.62297 115.77994 25031 ft 364 kts 293°
2026-04-20 15:28 39.63056 115.74853 25323 ft 367 kts 284°
2026-04-20 15:28 39.63374 115.71555 25638 ft 372 kts 275°
2026-04-20 15:29 39.63195 115.68188 26058 ft 377 kts 266°
2026-04-20 15:29 39.62504 115.64864 26498 ft 386 kts 257°
2026-04-20 15:29 39.61282 115.61694 26826 ft 400 kts 246°
2026-04-20 15:29 39.59500 115.58824 27076 ft 419 kts 235°
2026-04-20 15:30 39.57201 115.56403 27468 ft 432 kts 226°
2026-04-20 15:30 39.54663 115.54253 27848 ft 439 kts 223°
2026-04-20 15:30 39.52050 115.52252 28143 ft 445 kts 222°
2026-04-20 15:30 39.49350 115.50266 28504 ft 448 kts 221°
2026-04-20 15:31 39.46635 115.48276 28831 ft 450 kts 222°
2026-04-20 15:31 39.43913 115.46255 29186 ft 451 kts 223°
2026-04-20 15:31 39.41193 115.44204 29536 ft 453 kts 223°
2026-04-20 15:31 39.38471 115.42127 29883 ft 455 kts 223°
2026-04-20 15:32 39.35740 115.40026 30144 ft 457 kts 223°
2026-04-20 15:32 39.30222 115.35769 30178 ft 466 kts 223°
2026-04-20 15:33 39.24641 115.31484 30176 ft 467 kts 223°
2026-04-20 15:33 39.19048 115.27205 30179 ft 467 kts 223°
2026-04-20 15:34 39.13458 115.22934 30187 ft 466 kts 223°
2026-04-20 15:34 39.07933 115.18720 30191 ft 464 kts 222°
2026-04-20 15:35 39.02381 115.14489 30190 ft 462 kts 222°
2026-04-20 15:35 38.96841 115.10273 30193 ft 461 kts 222°
2026-04-20 15:36 38.91316 115.06076 30192 ft 461 kts 222°
2026-04-20 15:36 38.85829 115.01916 30200 ft 461 kts 222°
2026-04-20 15:37 38.80303 114.97733 30199 ft 461 kts 221°
2026-04-20 15:37 38.74778 114.93559 30195 ft 461 kts 221°
2026-04-20 15:38 38.69235 114.89380 30200 ft 462 kts 221°
2026-04-20 15:38 38.63681 114.85200 30201 ft 463 kts 221°
2026-04-20 15:39 38.58111 114.81016 30210 ft 464 kts 220°
2026-04-20 15:39 38.52550 114.76849 30198 ft 463 kts 220°
2026-04-20 15:40 38.47015 114.72707 30198 ft 463 kts 220°
2026-04-20 15:40 38.41456 114.68554 30201 ft 463 kts 220°
2026-04-20 15:41 38.35902 114.64413 30199 ft 461 kts 219°
2026-04-20 15:41 38.30379 114.60302 30202 ft 459 kts 219°
2026-04-20 15:42 38.24871 114.56210 30198 ft 457 kts 219°
2026-04-20 15:42 38.19382 114.52138 30199 ft 456 kts 219°
2026-04-20 15:43 38.13907 114.48082 30202 ft 455 kts 218°
2026-04-20 15:43 38.08423 114.44027 30197 ft 455 kts 218°
2026-04-20 15:44 38.02989 114.40016 30196 ft 454 kts 218°
2026-04-20 15:44 37.97516 114.35984 30204 ft 454 kts 218°
2026-04-20 15:45 37.92046 114.31961 30203 ft 454 kts 218°
2026-04-20 15:45 37.86579 114.27947 30206 ft 454 kts 217°
2026-04-20 15:46 37.81110 114.23940 30214 ft 453 kts 217°
2026-04-20 15:46 37.75650 114.19946 30213 ft 453 kts 217°
2026-04-20 15:47 37.70228 114.15984 30220 ft 453 kts 217°
2026-04-20 15:47 37.65652 114.12646 30233 ft 453 kts 217°
2026-04-20 15:48 37.59304 114.08029 30230 ft 453 kts 217°
2026-04-20 15:48 37.53828 114.04051 30237 ft 454 kts 217°
2026-04-20 15:49 37.49257 114.00737 30247 ft 455 kts 217°
2026-04-20 15:49 37.43758 113.96755 30248 ft 456 kts 217°
2026-04-20 15:50 37.38248 113.92768 30246 ft 456 kts 217°
2026-04-20 15:50 37.32780 113.88821 30255 ft 456 kts 217°
2026-04-20 15:51 37.27261 113.84848 30255 ft 456 kts 217°
2026-04-20 15:51 37.24501 113.82861 29903 ft 462 kts 217°
2026-04-20 15:51 37.21695 113.80838 29260 ft 465 kts 217°
2026-04-20 15:51 37.18887 113.78820 28391 ft 466 kts 216°
2026-04-20 15:52 37.15156 113.76144 27216 ft 466 kts 216°
2026-04-20 15:52 37.13256 113.74784 26686 ft 465 kts 216°
2026-04-20 15:52 37.10455 113.72781 26089 ft 460 kts 216°
2026-04-20 15:53 37.05023 113.68915 25772 ft 444 kts 216°
2026-04-20 15:53 37.02325 113.66983 25772 ft 447 kts 216°
2026-04-20 15:53 36.99627 113.65048 25774 ft 448 kts 216°
2026-04-20 15:53 36.96952 113.63132 25773 ft 449 kts 216°
2026-04-20 15:54 36.94236 113.61192 25773 ft 449 kts 216°
2026-04-20 15:54 36.91520 113.59256 25732 ft 450 kts 216°
2026-04-20 15:54 36.88802 113.57322 25154 ft 449 kts 216°
2026-04-20 15:54 36.86086 113.55391 24443 ft 450 kts 216°
2026-04-20 15:55 36.83383 113.53474 23993 ft 444 kts 216°
2026-04-20 15:55 36.80716 113.51586 23816 ft 439 kts 215°
2026-04-20 15:55 36.78053 113.49696 23778 ft 442 kts 215°
2026-04-20 15:55 36.75374 113.47793 23779 ft 443 kts 215°
2026-04-20 15:56 36.72696 113.45893 23782 ft 443 kts 215°
2026-04-20 15:56 36.70016 113.43994 23779 ft 443 kts 215°
2026-04-20 15:56 36.67340 113.42100 23777 ft 442 kts 215°
2026-04-20 15:56 36.64665 113.40212 23784 ft 441 kts 215°
2026-04-20 15:57 36.62002 113.38335 23784 ft 440 kts 215°
2026-04-20 15:57 36.59339 113.36458 23786 ft 439 kts 214°
2026-04-20 15:57 36.56684 113.34587 23781 ft 438 kts 214°
2026-04-20 15:57 36.54062 113.32740 23781 ft 437 kts 214°
2026-04-20 15:58 36.51411 113.30873 23635 ft 436 kts 214°
2026-04-20 15:58 36.48770 113.29015 23370 ft 436 kts 214°
2026-04-20 15:58 36.46124 113.27155 23103 ft 436 kts 214°
2026-04-20 15:58 36.43485 113.25303 22834 ft 436 kts 214°
2026-04-20 15:59 36.40844 113.23451 22571 ft 435 kts 214°
2026-04-20 15:59 36.38211 113.21605 22311 ft 434 kts 214°
2026-04-20 15:59 36.35585 113.19768 22063 ft 433 kts 214°
2026-04-20 15:59 36.32961 113.17934 21910 ft 432 kts 214°
2026-04-20 16:00 36.30345 113.16105 21887 ft 432 kts 214°
2026-04-20 16:00 36.27643 113.14435 21889 ft 436 kts 206°
2026-04-20 16:00 36.24708 113.13395 21888 ft 444 kts 194°
2026-04-20 16:00 36.21599 113.13225 21748 ft 452 kts 179°
2026-04-20 16:01 36.18529 113.13967 21515 ft 457 kts 169°
2026-04-20 16:01 36.15480 113.15147 21269 ft 459 kts 165°
2026-04-20 16:01 36.12484 113.16513 21014 ft 459 kts 163°
2026-04-20 16:01 36.09509 113.17946 20900 ft 458 kts 162°
2026-04-20 16:02 36.06539 113.19379 20888 ft 458 kts 162°
2026-04-20 16:02 36.03565 113.20790 20890 ft 457 kts 163°
2026-04-20 16:02 36.00586 113.22171 20893 ft 456 kts 163°
2026-04-20 16:02 35.97607 113.23525 20893 ft 456 kts 164°
2026-04-20 16:03 35.94626 113.24862 20880 ft 456 kts 164°
2026-04-20 16:03 35.91655 113.26192 20615 ft 450 kts 164°
2026-04-20 16:03 35.88719 113.27499 19921 ft 449 kts 164°
2026-04-20 16:03 35.85780 113.28804 19273 ft 447 kts 163°
2026-04-20 16:04 35.82862 113.30105 18656 ft 444 kts 163°
2026-04-20 16:04 35.79973 113.31397 17992 ft 441 kts 163°
2026-04-20 16:04 35.77103 113.32679 17377 ft 436 kts 163°
2026-04-20 16:04 35.74271 113.33943 16800 ft 430 kts 162°
2026-04-20 16:05 35.71471 113.35193 16228 ft 425 kts 162°
2026-04-20 16:05 35.68739 113.36412 15663 ft 420 kts 162°
2026-04-20 16:05 35.66005 113.37629 15105 ft 416 kts 162°
2026-04-20 16:05 35.63289 113.38835 14525 ft 411 kts 162°
2026-04-20 16:06 35.60616 113.40022 13942 ft 407 kts 161°
2026-04-20 16:06 35.57970 113.41202 13313 ft 402 kts 161°
2026-04-20 16:06 35.55354 113.42359 12716 ft 396 kts 161°
2026-04-20 16:06 35.52775 113.43500 12188 ft 391 kts 161°
2026-04-20 16:07 35.50226 113.44627 11616 ft 386 kts 161°
2026-04-20 16:07 35.47714 113.45741 11070 ft 381 kts 160°
2026-04-20 16:07 35.45244 113.46835 10531 ft 376 kts 160°
2026-04-20 16:07 35.42807 113.47922 9966 ft 371 kts 160°
2026-04-20 16:08 35.40403 113.49007 9594 ft 360 kts 159°
2026-04-20 16:08 35.38099 113.50044 9349 ft 346 kts 160°
2026-04-20 16:08 35.35900 113.51032 9063 ft 325 kts 159°
2026-04-20 16:08 35.33805 113.51970 8845 ft 315 kts 159°
2026-04-20 16:09 35.31781 113.52879 8708 ft 304 kts 159°
2026-04-20 16:09 35.29853 113.53743 8552 ft 294 kts 159°
2026-04-20 16:09 35.27962 113.54593 8382 ft 285 kts 159°
2026-04-20 16:09 35.26118 113.55430 8077 ft 282 kts 159°
2026-04-20 16:10 35.24282 113.56251 7723 ft 280 kts 159°
2026-04-20 16:10 35.22449 113.57067 7369 ft 279 kts 159°
2026-04-20 16:10 35.20636 113.57876 6999 ft 278 kts 158°
2026-04-20 16:10 35.18822 113.58685 6650 ft 277 kts 158°
2026-04-20 16:11 35.17015 113.59491 6280 ft 275 kts 158°
2026-04-20 16:11 35.15221 113.60292 5945 ft 274 kts 158°
2026-04-20 16:11 35.13440 113.61091 5594 ft 272 kts 159°
2026-04-20 16:11 35.11663 113.61885 5218 ft 270 kts 159°
2026-04-20 16:12 35.09898 113.62676 4847 ft 269 kts 159°
2026-04-20 16:12 35.08163 113.63448 4454 ft 268 kts 159°
2026-04-20 16:12 35.06413 113.64210 4081 ft 266 kts 160°
2026-04-20 16:12 35.04674 113.64962 3895 ft 265 kts 160°
2026-04-20 16:13 35.02935 113.65716 3883 ft 265 kts 160°
2026-04-20 16:13 35.01196 113.66469 3882 ft 265 kts 160°
2026-04-20 16:13 34.99456 113.67225 3884 ft 265 kts 159°
2026-04-20 16:13 34.97719 113.67980 3883 ft 265 kts 159°
2026-04-20 16:14 34.95980 113.68735 3884 ft 265 kts 159°
2026-04-20 16:14 34.94241 113.69490 3885 ft 265 kts 159°
2026-04-20 16:14 34.92501 113.70243 3881 ft 265 kts 159°
2026-04-20 16:14 34.90759 113.70999 3882 ft 265 kts 159°
2026-04-20 16:15 34.89018 113.71752 3877 ft 265 kts 160°
2026-04-20 16:15 34.87310 113.72201 3874 ft 255 kts 175°
2026-04-20 16:15 34.85608 113.71976 3873 ft 240 kts 197°
2026-04-20 16:15 34.84713 113.71491 3872 ft 231 kts 210°
2026-04-20 16:16 34.83528 113.70432 3879 ft 224 kts 221°
2026-04-20 16:16 34.82446 113.69098 3885 ft 224 kts 228°
2026-04-20 16:16 34.81432 113.67623 3883 ft 225 kts 231°
2026-04-20 16:16 34.80461 113.66132 3883 ft 225 kts 231°
2026-04-20 16:17 34.79453 113.64592 3900 ft 250 kts 231°
2026-04-20 16:17 34.78347 113.62949 3887 ft 245 kts 230°
2026-04-20 16:17 34.77279 113.61411 3873 ft 231 kts 229°
2026-04-20 16:17 34.76262 113.59979 3873 ft 216 kts 229°
2026-04-20 16:18 34.75290 113.58626 3882 ft 211 kts 228°
2026-04-20 16:18 34.74320 113.57283 3883 ft 211 kts 228°
2026-04-20 16:18 34.73349 113.55942 3884 ft 211 kts 229°
2026-04-20 16:18 34.72379 113.54603 3881 ft 211 kts 228°
2026-04-20 16:19 34.71412 113.53266 3880 ft 211 kts 229°
2026-04-20 16:19 34.70685 113.51718 3881 ft 211 kts 255°
2026-04-20 16:19 34.70550 113.49960 3890 ft 209 kts 271°
2026-04-20 16:19 34.70265 113.48256 3884 ft 211 kts 243°
2026-04-20 16:20 34.69253 113.46974 3881 ft 210 kts 207°
2026-04-20 16:20 34.67865 113.46627 3877 ft 208 kts 169°
2026-04-20 16:20 34.66642 113.47449 3890 ft 202 kts 126°
2026-04-20 16:20 34.65929 113.48915 3889 ft 203 kts 113°
2026-04-20 16:21 34.65356 113.50486 3886 ft 204 kts 111°
2026-04-20 16:21 34.64810 113.52075 3887 ft 204 kts 110°
2026-04-20 16:21 34.64275 113.53671 3887 ft 204 kts 111°
2026-04-20 16:21 34.63734 113.55259 3890 ft 204 kts 111°
2026-04-20 16:22 34.63188 113.56841 3889 ft 203 kts 111°
2026-04-20 16:22 34.62641 113.58422 3890 ft 203 kts 111°
2026-04-20 16:22 34.62097 113.60005 3892 ft 203 kts 111°
2026-04-20 16:22 34.61565 113.61564 3880 ft 194 kts 110°
2026-04-20 16:23 34.61072 113.63014 3911 ft 181 kts 110°
2026-04-20 16:23 34.60594 113.64425 3900 ft 181 kts 110°
2026-04-20 16:23 34.60119 113.65846 3765 ft 182 kts 110°
2026-04-20 16:23 34.59644 113.67268 3522 ft 181 kts 110°
2026-04-20 16:24 34.59164 113.68681 3257 ft 181 kts 111°
2026-04-20 16:24 34.58685 113.70093 3001 ft 180 kts 110°
2026-04-20 16:24 34.58214 113.71486 2770 ft 177 kts 110°
2026-04-20 16:24 34.57757 113.72833 2525 ft 168 kts 111°
2026-04-20 16:25 34.57324 113.74110 2308 ft 161 kts 111°
2026-04-20 16:25 34.56909 113.75336 2097 ft 153 kts 111°
2026-04-20 16:25 34.56511 113.76511 1891 ft 149 kts 111°
2026-04-20 16:25 34.56124 113.77655 1692 ft 148 kts 111°
2026-04-20 16:26 34.55737 113.78797 1482 ft 143 kts 111°
2026-04-20 16:26 34.55364 113.79899 1293 ft 140 kts 111°
2026-04-20 16:26 34.54994 113.80995 1099 ft 140 kts 111°
2026-04-20 16:26 34.54626 113.82089 906 ft 140 kts 111°
2026-04-20 16:27 34.54259 113.83180 717 ft 140 kts 111°
2026-04-20 16:27 34.53889 113.84255 561 ft 140 kts 111°
2026-04-20 16:27 34.53523 113.85331 507 ft 127 kts 114°
2026-04-20 16:27 34.53273 113.86058 506 ft 52 kts 113°
2026-04-20 16:28 34.53228 113.86183 506 ft 3 kts 116°
2026-04-20 16:28 34.53183 113.86273 505 ft 17 kts 126°
2026-04-20 16:28 34.53102 113.86361 505 ft 15 kts 141°
2026-04-20 16:28 34.53067 113.86394 506 ft 0 kts 142°
2026-04-20 16:29 34.53064 113.86398 506 ft 2 kts 142°
2026-04-20 16:29 34.53045 113.86413 506 ft 5 kts 148°
2026-04-20 16:29 34.53010 113.86424 507 ft 6 kts 185°
2026-04-20 16:29 34.52987 113.86367 507 ft 8 kts 275°
2026-04-20 16:30 34.53013 113.86273 508 ft 14 kts 291°
2026-04-20 16:30 34.53053 113.86151 508 ft 17 kts 291°
2026-04-20 16:30 34.53098 113.86013 508 ft 18 kts 292°
2026-04-20 16:30 34.53141 113.85879 508 ft 9 kts 286°
2026-04-20 16:31 34.53120 113.85809 508 ft 10 kts 222°
2026-04-20 16:31 34.53054 113.85765 508 ft 12 kts 204°
2026-04-20 16:31 34.52969 113.85724 508 ft 14 kts 201°
2026-04-20 16:31 34.52874 113.85677 508 ft 13 kts 205°
2026-04-20 16:32 34.52832 113.85615 508 ft 7 kts 265°
2026-04-20 16:32 34.52849 113.85549 508 ft 10 kts 293°
2026-04-20 16:32 34.52867 113.85496 508 ft 0 kts 290°
2026-04-20 16:32 34.52869 113.85483 508 ft 3 kts 280°
2026-04-20 16:33 34.52861 113.85447 508 ft 6 kts 237°
2026-04-20 16:33 34.52813 113.85411 508 ft 11 kts 205°
2026-04-20 16:33 34.52772 113.85380 508 ft 2 kts 247°
2026-04-20 16:33 34.52774 113.85347 508 ft 13 kts 276°
2026-04-20 16:34 34.52778 113.85316 508 ft 4 kts 279°
2026-04-20 16:34 34.52785 113.85274 507 ft 0 kts 284°